[[{"header":{"parameterUnit":"m.s-1","parameterCategory":1,"la1":30.2991,"la2":30.254,"lo1":-89.0895,"lo2":-89.0444,"dy":0.0017,"dx":0.0017,"nx":28,"ny":28,"refTime":"2024-05-09T09:00:00:Z","depth":0,"parameterNumber":2,"parameterNumberName":"U-component_of_WINDS"},"data":[0,0,0,0,0,0,0,0,0,0,0,0,0,0,0,0,0,0,0,0,0,0,0,0,0,0,0,0,0,0,0,0,0,0,0,0,0,0,0,0,0,0,0,0,0,0,0,0,0,0,0,0,0,0,0,0,0,0,-1.1536,-1.1537,0,-1.1621,-1.1622,-1.1623,-1.1653,-1.1653,-1.1653,-1.1652,-1.1746,-1.1749,-1.1751,0,0,0,0,0,0,0,0,0,0,0,0,0,-1.1409,-1.1411,-1.1536,-1.1537,-1.1538,-1.162,-1.1622,-1.1623,-1.1653,-1.1653,-1.1653,-1.1652,-1.1745,-1.1748,-1.1752,0,0,0,0,0,0,0,0,0,0,0,0,0,-1.1476,-1.1412,-1.1536,-1.1563,-1.1567,-1.162,-1.1622,-1.1623,-1.1653,-1.1653,-1.1653,-1.1652,-1.1744,-1.1748,-1.1752,-1.1787,0,0,-1.1765,-1.1767,0,0,0,0,0,0,0,0,-1.1472,-1.1481,-1.1558,-1.1561,-1.1565,-1.1626,-1.1611,-1.1678,-1.1654,-1.1621,-1.1652,-1.1652,-1.1707,-1.1714,-1.1731,-1.1791,-1.1796,-1.1765,-1.1768,-1.177,-1.1771,0,0,0,0,0,0,0,-1.1468,-1.1478,-1.157,-1.1559,-1.1564,-1.1574,-1.1583,-1.1624,-1.1666,-1.1624,-1.1626,-1.1635,-1.1709,-1.1727,-1.1734,-1.1797,-1.1765,-1.1769,-1.1771,-1.1773,-1.1893,-1.1893,0,0,0,0,0,0,-1.1458,-1.1473,-1.1567,-1.1572,-1.1516,-1.1576,-1.1587,-1.1607,-1.1665,-1.1673,-1.1635,-1.1636,-1.172,-1.1729,-1.1737,-1.1783,-1.177,-1.1773,-1.1776,-1.1892,-1.1893,-1.1893,0,0,0,0,0,0,-1.1455,-1.1466,-1.1564,-1.1524,-1.1537,-1.1579,-1.1602,-1.1609,-1.1627,-1.1674,-1.1682,-1.1646,-1.172,-1.1731,-1.1774,-1.1786,-1.1775,-1.1779,-1.1891,-1.1892,-1.1893,-1.1874,0,0,0,0,0,0,-1.1451,-1.1464,-1.1476,-1.1523,-1.1539,-1.1597,-1.1603,-1.1611,-1.1633,-1.1635,-1.1686,-1.1694,-1.1721,-1.1768,-1.1778,-1.1792,-1.1782,-1.189,-1.1892,-1.1893,-1.1874,-1.1874,-1.1874,0,0,0,0,0,-1.1446,-1.1469,-1.1476,-1.1488,-1.1554,-1.1598,-1.1607,-1.1635,-1.1634,-1.1648,-1.1678,-1.1693,-1.1783,-1.1772,-1.1784,-1.1799,-1.189,-1.1891,-1.1893,-1.1873,-1.1874,-1.1874,0,0,0,0,0,0,-1.1424,-1.1475,-1.1485,-1.1522,-1.1555,-1.1603,-1.162,-1.1634,-1.167,-1.167,-1.1706,-1.1717,-1.1758,-1.1783,-1.177,-1.1837,-1.1838,-1.1842,-1.1819,-1.182,-1.182,-1.1814,-1.1786,0,0,0,0,0,-1.1423,-1.1451,-1.1496,-1.1525,-1.1541,-1.1578,-1.1598,-1.1616,-1.1653,-1.1668,-1.1701,-1.1738,-1.1775,-1.1799,-1.1836,-1.1877,-1.189,-1.1894,-1.1894,-1.1894,-1.1898,-1.1924,-1.1926,-1.1898,-1.1898,-1.1898,0,0,-1.1422,-1.1453,-1.147,-1.1521,-1.1549,-1.1581,-1.1589,-1.1622,-1.1647,-1.1674,-1.1716,-1.1742,-1.1786,-1.1829,-1.1849,-1.1851,-1.1908,-1.1896,-1.1896,-1.19,-1.1926,-1.1928,-1.193,-1.1899,-1.1899,-1.1899,0,0,-1.1436,-1.1462,-1.149,-1.1517,-1.1558,-1.1582,-1.1589,-1.1635,-1.1652,-1.1695,-1.1716,-1.1747,-1.181,-1.1841,-1.1864,-1.1891,-1.1907,-1.1903,-1.1905,-1.193,-1.1932,-1.1934,-1.1945,-1.1949,-1.1906,-1.1906,-1.1906,0,-1.143,-1.1476,-1.1503,-1.1534,-1.1557,-1.1581,-1.1611,-1.1637,-1.1689,-1.1705,-1.1706,-1.1785,-1.1817,-1.1868,-1.1874,-1.1892,-1.1903,-1.1897,-1.1929,-1.1932,-1.1934,-1.1945,-1.1949,-1.1905,-1.1905,-1.1905,-1.1905,0,-1.1468,-1.1499,-1.1517,-1.1564,-1.1589,-1.162,-1.1654,-1.1677,-1.1693,-1.1719,-1.1763,-1.1801,-1.1847,-1.186,-1.1878,-1.1915,-1.1915,-1.1922,-1.1923,-1.1936,-1.1947,-1.1951,-1.1904,-1.1904,-1.1904,-1.1905,0,0,-1.147,-1.1531,-1.1537,-1.1559,-1.1607,-1.1633,-1.1666,-1.1708,-1.1728,-1.1763,-1.1793,-1.1846,-1.1853,-1.188,-1.1902,-1.1923,-1.1944,-1.1928,-1.193,-1.1931,-1.1989,-1.1984,-1.1988,-1.1954,-1.1955,-1.1956,-1.1986,0,-1.1491,-1.1547,-1.1573,-1.1619,-1.165,-1.1674,-1.1703,-1.1737,-1.1761,-1.1794,-1.1822,-1.1859,-1.1865,-1.1882,-1.1904,-1.1936,-1.1956,-1.1935,-1.1985,-1.1986,-1.1973,-1.1994,-1.1988,-1.2014,-1.199,-1.1991,-1.1991,0,-1.1523,-1.1556,-1.1605,-1.1649,-1.1663,-1.1688,-1.173,-1.1759,-1.1799,-1.1816,-1.1846,-1.1867,-1.1905,-1.1903,-1.1958,-1.1943,-1.1966,-1.1985,-1.1987,-1.1993,-1.199,-1.2002,-1.2023,-1.2027,-1.1998,-1.1998,-1.1997,0,-1.1521,-1.1578,-1.1615,-1.1633,-1.1685,-1.1703,-1.1726,-1.1765,-1.1789,-1.1827,-1.1843,-1.1885,-1.1908,-1.1942,-1.1975,-1.197,-1.2027,-1.2028,-1.2044,-1.2043,-1.2056,-1.2054,-1.2082,-1.2069,-1.2068,-1.2068,-1.2068,0,-1.1542,-1.1571,-1.1614,-1.1637,-1.1671,-1.1702,-1.1736,-1.1761,-1.1796,-1.1826,-1.185,-1.1879,-1.1919,-1.1954,-1.198,-1.2023,-1.2033,-1.205,-1.2056,-1.2048,-1.2046,-1.2064,-1.2063,-1.207,-1.2069,-1.2069,-1.2069,0,-1.1546,-1.1575,-1.1617,-1.1663,-1.1675,-1.1699,-1.174,-1.1764,-1.179,-1.1828,-1.1839,-1.1881,-1.1923,-1.1959,-1.2015,-1.2032,-1.2077,-1.2084,-1.2062,-1.2066,-1.2081,-1.2079,-1.2121,-1.2129,-1.2109,-1.211,-1.211,0,-1.1558,-1.158,-1.1628,-1.1649,-1.1671,-1.1704,-1.1728,-1.176,-1.1785,-1.1833,-1.1852,-1.1895,-1.1931,-1.1998,-1.2035,-1.2079,-1.2088,-1.21,-1.2095,-1.2086,-1.209,-1.2088,-1.2092,-1.2101,-1.2101,-1.2101,-1.2101,0,-1.1576,-1.159,-1.1622,-1.166,-1.1688,-1.172,-1.1753,-1.1769,-1.1808,-1.1835,-1.1877,-1.1905,-1.1961,-1.2005,-1.2052,-1.208,-1.2098,-1.2102,-1.2108,-1.21,-1.2087,-1.2095,-1.2064,-1.2101,-1.2101,-1.2101,-1.2101,-1.2101,-1.1585,-1.1607,-1.1644,-1.168,-1.1707,-1.1738,-1.1763,-1.1792,-1.1826,-1.1873,-1.189,-1.1934,-1.1976,-1.2041,-1.2068,-1.2105,-1.2107,-1.2116,-1.2119,-1.2121,-1.212,-1.208,-1.2114,-1.2114,-1.2114,-1.2114,-1.2114,0,-1.1606,-1.1631,-1.1663,-1.1708,-1.1737,-1.1748,-1.1786,-1.181,-1.1847,-1.1883,-1.1917,-1.1967,-1.2009,-1.205,-1.2095,-1.2117,-1.2126,-1.2128,-1.2127,-1.2133,-1.2114,-1.2105,-1.2119,-1.2119,-1.2119,-1.2119,-1.2119,-1.2119,-1.162,-1.1658,-1.1676,-1.1728,-1.1754,-1.1794,-1.1815,-1.1844,-1.1873,-1.1926,-1.196,-1.1985,-1.2024,-1.2073,-1.2113,-1.2125,-1.2141,-1.214,-1.2154,-1.2136,-1.2135,-1.2134,-1.2125,-1.2143,-1.2143,-1.217,-1.217,-1.2171]},{"header":{"parameterUnit":"m.s-1","parameterCategory":1,"la1":30.2991,"la2":30.254,"lo1":-89.0895,"lo2":-89.0444,"dy":0.0017,"dx":0.0017,"nx":28,"ny":28,"refTime":"2024-05-09T09:00:00:Z","depth":0,"parameterNumber":3,"parameterNumberName":"V-component_of_WINDS"},"data":[0,0,0,0,0,0,0,0,0,0,0,0,0,0,0,0,0,0,0,0,0,0,0,0,0,0,0,0,0,0,0,0,0,0,0,0,0,0,0,0,0,0,0,0,0,0,0,0,0,0,0,0,0,0,0,0,0,0,6.9349,6.9349,0,6.9391,6.9392,6.9392,6.9354,6.9353,6.9351,6.935,6.939,6.9392,6.9395,0,0,0,0,0,0,0,0,0,0,0,0,0,6.923,6.9232,6.9349,6.9349,6.935,6.9391,6.9392,6.9392,6.9354,6.9353,6.9351,6.9349,6.9389,6.9392,6.9395,0,0,0,0,0,0,0,0,0,0,0,0,0,6.9278,6.9233,6.9348,6.9336,6.9335,6.9391,6.9392,6.9393,6.9355,6.9352,6.935,6.9348,6.9388,6.9392,6.9395,6.9465,0,0,6.9407,6.9409,0,0,0,0,0,0,0,0,6.9275,6.9282,6.9337,6.9337,6.9336,6.9365,6.9365,6.9417,6.9355,6.9347,6.935,6.9347,6.9383,6.9387,6.94,6.9467,6.9469,6.9407,6.941,6.9411,6.9412,0,0,0,0,0,0,0,6.9272,6.928,6.9365,6.9338,6.9337,6.9327,6.9331,6.9374,6.9378,6.9348,6.9345,6.9351,6.9382,6.9397,6.9401,6.9469,6.9407,6.9411,6.9413,6.9414,6.9595,6.9597,0,0,0,0,0,0,6.9271,6.9278,6.9364,6.9367,6.93,6.9331,6.9335,6.9358,6.9377,6.9378,6.9353,6.9349,6.9391,6.9397,6.9402,6.9484,6.9411,6.9415,6.9417,6.9592,6.9595,6.9598,0,0,0,0,0,0,6.9268,6.9279,6.9362,6.9322,6.9331,6.9335,6.9361,6.936,6.9374,6.9381,6.9381,6.9367,6.939,6.9397,6.945,6.9485,6.9416,6.942,6.9589,6.9593,6.9597,6.965,0,0,0,0,0,0,6.9265,6.9278,6.9305,6.9323,6.9334,6.941,6.9363,6.9363,6.9381,6.9377,6.9394,6.9395,6.9389,6.9444,6.9454,6.9489,6.9423,6.9586,6.9591,6.9595,6.9645,6.9655,6.9664,0,0,0,0,0,6.9261,6.9318,6.9307,6.9318,6.9368,6.9413,6.9419,6.9411,6.9384,6.9411,6.9415,6.9394,6.948,6.945,6.946,6.9497,6.9584,6.959,6.9595,6.9641,6.9653,6.9664,0,0,0,0,0,0,6.9303,6.932,6.9308,6.9373,6.9392,6.9406,6.944,6.9425,6.9451,6.9445,6.9434,6.9438,6.9494,6.9501,6.9467,6.9566,6.9527,6.9535,6.9559,6.9571,6.958,6.9576,6.9426,0,0,0,0,0,6.9321,6.9357,6.9369,6.9424,6.9435,6.9436,6.9455,6.9448,6.9466,6.9474,6.9482,6.95,6.9531,6.9551,6.958,6.9646,6.9649,6.9677,6.9686,6.9694,6.9701,6.9735,6.9748,6.9617,6.9617,6.9617,0,0,6.9356,6.9369,6.9392,6.9433,6.9447,6.9483,6.9443,6.9483,6.9509,6.9479,6.953,6.9537,6.9556,6.9616,6.9642,6.9623,6.9738,6.9701,6.9707,6.971,6.9743,6.9755,6.9766,6.9621,6.962,6.9619,0,0,6.9438,6.9453,6.9501,6.9516,6.9538,6.9538,6.955,6.9567,6.9571,6.9622,6.96,6.9631,6.9685,6.9699,6.9713,6.9802,6.9783,6.9812,6.986,6.9895,6.9905,6.9914,6.9945,6.9956,6.9819,6.9819,6.9819,0,6.9479,6.9534,6.9527,6.9569,6.9587,6.9563,6.9611,6.9625,6.9655,6.9668,6.9646,6.9714,6.9725,6.9787,6.9809,6.9822,6.9834,6.9809,6.9904,6.9913,6.9922,6.9951,6.9962,6.9822,6.9822,6.9822,6.9821,0,6.9582,6.9621,6.9657,6.9688,6.971,6.9754,6.9753,6.9776,6.9767,6.9769,6.9821,6.9834,6.9865,6.9879,6.9871,6.9941,6.9928,6.9906,6.9867,6.9937,6.9965,6.9976,6.9827,6.9826,6.9825,6.9824,0,0,6.9692,6.9719,6.9732,6.9746,6.9769,6.9798,6.9841,6.9872,6.9892,6.9913,6.9948,6.9995,6.9974,6.9991,6.9983,7.0014,7.0082,6.9987,6.9988,7.0004,7.016,7.0175,7.0189,7.0071,7.0073,7.0074,7.0158,0,6.9775,6.9851,6.9846,6.9917,6.9952,6.993,6.9968,6.9985,6.9989,7.0018,7.0021,7.0054,7.0025,7.0035,7.0064,7.0068,7.0113,7.0062,7.0102,7.0103,7.0097,7.0203,7.022,7.0298,7.0168,7.017,7.0171,0,6.9882,6.9908,6.9983,7.0001,7.0015,7.0049,7.0077,7.0106,7.0125,7.0125,7.0144,7.0132,7.0174,7.0136,7.0193,7.0158,7.0174,7.0179,7.0182,7.0184,7.0141,7.0207,7.0322,7.0334,7.0188,7.0187,7.0186,0,6.9953,7.0008,7.0059,7.0072,7.0094,7.0118,7.0128,7.0145,7.0164,7.0188,7.0201,7.0229,7.0245,7.0267,7.0263,7.0235,7.0321,7.0282,7.0322,7.0322,7.034,7.0338,7.0458,7.0352,7.0352,7.0352,7.0352,0,7.0046,7.0092,7.0092,7.0124,7.0175,7.0168,7.0218,7.0225,7.0241,7.0273,7.0256,7.0285,7.0278,7.0308,7.0305,7.0352,7.036,7.036,7.0359,7.0361,7.0361,7.0371,7.0365,7.0355,7.0354,7.0354,7.0353,0,7.0134,7.0136,7.019,7.0207,7.0212,7.0249,7.0263,7.0292,7.0295,7.0335,7.0344,7.0348,7.0382,7.038,7.0418,7.0416,7.0474,7.0467,7.0468,7.0466,7.0505,7.0501,7.0635,7.0651,7.0536,7.0537,7.0538,0,7.0192,7.0228,7.0248,7.0269,7.0281,7.0315,7.0334,7.0329,7.035,7.0375,7.0401,7.0434,7.0459,7.0514,7.052,7.0549,7.0541,7.0586,7.0545,7.0547,7.0541,7.0538,7.0541,7.0593,7.0595,7.0596,7.0597,0,7.0295,7.0295,7.0325,7.0355,7.0379,7.0403,7.0424,7.0442,7.0438,7.0463,7.0498,7.0518,7.0557,7.0589,7.0617,7.0626,7.0611,7.061,7.062,7.0622,7.0621,7.0622,7.0489,7.0606,7.0605,7.0605,7.0604,7.0604,7.037,7.04,7.042,7.0453,7.0469,7.0489,7.0518,7.0524,7.0554,7.0586,7.0581,7.062,7.0638,7.0673,7.0685,7.0715,7.0699,7.0714,7.0718,7.0722,7.0726,7.0618,7.072,7.072,7.072,7.072,7.0719,0,7.0471,7.0483,7.0514,7.0545,7.0571,7.0556,7.0579,7.0601,7.0636,7.0655,7.068,7.072,7.0752,7.076,7.079,7.0812,7.0805,7.082,7.0817,7.082,7.0739,7.0726,7.0825,7.0825,7.0824,7.0824,7.0824,7.0824,7.0527,7.0578,7.0579,7.0637,7.0648,7.0687,7.0701,7.0719,7.0734,7.0779,7.0806,7.0811,7.0825,7.0856,7.0884,7.0885,7.0896,7.0913,7.0912,7.0836,7.0825,7.0815,7.0804,7.0916,7.0916,7.099,7.0991,7.0991]}]]